Date String (YYYY-MM-DD hh:mm:ss) UTC,Instrument flags,Ambient pressure (hPa),Sample flow (lpm),Bypass flow (lpm),Sample temperature (°C),Ambient temperature (°C),ASC tube jacket temperature (°C),LED temperature (°C),Box temperature (°C),Sample RH (%),Span deviation,Mass concentration (μg/m³),Mass concentration (μg/m³),Mass concentration (μg/m³)
DateTimeUTC,F1_M11,P_M11,Q1_M11,Q2_M11,T1_M11,T2_M11,T3_M11,T4_M11,T5_M11,U1_M11,ZSPAN_M11,X0_M11,X2_M11,X1_M11
2021-12-02 02:00:00,,0828.3,5.00,0.00,29.9,28.8,00.0,38.9,31.6,09.0,0000.0,0001.77,0000.38,0000.26
2021-12-02 02:01:00,,0828.5,4.99,0.00,29.9,28.8,00.0,38.9,31.6,09.0,0000.0,0001.96,0000.42,0000.27
2021-12-02 02:02:00,,0828.3,4.99,0.00,29.9,28.8,00.0,38.9,31.6,09.0,0000.0,0002.04,0000.45,0000.27
2021-12-02 02:03:00,,0828.3,5.01,0.00,29.9,28.9,00.0,38.9,31.6,09.0,0000.0,0001.94,0000.45,0000.27
2021-12-02 02:04:00,,0828.4,4.99,0.00,29.9,28.8,00.0,38.9,31.6,09.0,0000.0,0001.91,0000.46,0000.28
2021-12-02 02:05:00,,0828.4,5.01,0.00,30.0,28.9,00.0,38.9,31.6,09.0,0000.0,0001.88,0000.44,0000.28
2021-12-02 02:06:00,,0828.6,4.99,0.00,30.0,28.9,00.0,38.9,31.6,08.9,0000.0,0001.87,0000.44,0000.28
2021-12-02 02:07:00,,0828.5,5.00,0.00,30.0,28.9,00.0,38.9,31.7,09.0,0000.0,0001.86,0000.44,0000.29
2021-12-02 02:08:00,,0828.5,5.01,0.00,30.0,29.0,00.0,38.9,31.7,09.0,0000.0,0001.95,0000.45,0000.29
2021-12-02 02:09:00,,0828.7,4.99,0.00,30.0,29.0,00.0,38.9,31.7,08.9,0000.0,0002.03,0000.47,0000.30
2021-12-02 02:10:00,,0829.1,5.01,0.00,30.0,29.1,00.0,39.0,31.8,08.8,0000.0,0001.79,0000.53,0000.30
2021-12-02 02:11:00,,0829.0,4.99,0.00,30.0,29.1,00.0,39.0,31.8,08.8,0000.0,0001.81,0000.56,0000.31
2021-12-02 02:12:00,,0828.9,5.01,0.00,30.1,29.1,00.0,39.0,31.8,08.8,0000.0,0001.65,0000.54,0000.31
2021-12-02 02:13:00,,0828.7,5.00,0.00,30.1,29.1,00.0,39.0,31.8,08.8,0000.0,0001.64,0000.55,0000.32
2021-12-02 02:14:00,,0828.9,4.98,0.00,30.1,29.2,00.0,39.0,31.9,08.9,0000.0,0002.25,0000.56,0000.32
2021-12-02 02:15:00,,0828.9,5.02,0.00,30.1,29.2,00.0,39.0,31.9,08.8,0000.0,0002.36,0000.60,0000.33
2021-12-02 02:16:00,,0828.7,5.01,0.00,30.1,29.2,00.0,39.0,31.9,08.8,0000.0,0002.37,0000.60,0000.33
2021-12-02 02:17:00,,0829.0,4.99,0.00,30.1,29.2,00.0,39.0,31.9,08.9,0000.0,0002.50,0000.64,0000.33
2021-12-02 02:18:00,,0828.8,5.01,0.00,30.1,29.2,00.0,39.0,31.9,08.8,0000.0,0002.58,0000.67,0000.34
2021-12-02 02:19:00,,0828.8,4.98,0.00,30.1,29.2,00.0,39.0,31.8,08.9,0000.0,0002.53,0000.67,0000.34
2021-12-02 02:20:00,,0829.1,5.00,0.00,30.1,29.2,00.0,39.0,31.8,08.9,0000.0,0002.43,0000.65,0000.34
2021-12-02 02:21:00,,0829.1,5.00,0.00,30.1,29.2,00.0,39.0,31.8,09.0,0000.0,0002.22,0000.60,0000.34
2021-12-02 02:22:00,,0829.0,5.01,0.00,30.1,29.2,00.0,39.0,31.7,09.0,0000.0,0001.65,0000.58,0000.35
2021-12-02 02:23:00,,0828.9,4.99,0.00,30.1,29.2,00.0,39.0,31.8,09.0,0000.0,0001.75,0000.63,0000.36
2021-12-02 02:24:00,,0828.9,5.01,0.00,30.1,29.2,00.0,39.1,31.9,09.0,0000.0,0001.90,0000.66,0000.36
2021-12-02 02:25:00,,0829.3,5.00,0.00,30.1,29.2,00.0,39.1,31.9,09.0,0000.0,0001.30,0000.65,0000.36
2021-12-02 02:26:00,,0828.7,5.00,0.00,30.1,29.3,00.0,39.1,31.9,08.9,0000.0,0001.29,0000.61,0000.36
2021-12-02 02:27:00,,0828.8,4.98,0.00,30.1,29.3,00.0,39.1,31.9,08.8,0000.0,0001.31,0000.62,0000.36
2021-12-02 02:28:00,,0828.9,5.00,0.00,30.2,29.3,00.0,39.1,31.9,08.9,0000.0,0001.18,0000.58,0000.35
2021-12-02 02:29:00,,0828.9,5.01,0.00,30.1,29.3,00.0,39.1,31.9,08.9,0000.0,0001.15,0000.56,0000.34
2021-12-02 02:30:00,,0828.9,4.99,0.00,30.1,29.3,00.0,39.1,31.9,08.9,0000.0,0001.86,0000.57,0000.34
2021-12-02 02:31:00,,0828.6,5.00,0.00,30.1,29.2,00.0,39.1,31.8,08.9,0000.0,0003.04,0000.56,0000.34
2021-12-02 02:32:00,,0828.5,5.01,0.00,30.1,29.2,00.0,39.1,31.8,08.9,0000.0,0003.86,0000.58,0000.34
2021-12-02 02:33:00,,0828.5,4.99,0.00,30.1,29.2,00.0,39.1,31.8,08.9,0000.0,0003.90,0000.61,0000.33
2021-12-02 02:34:00,,0828.5,5.01,0.00,30.1,29.2,00.0,39.1,31.8,08.9,0000.0,0003.89,0000.57,0000.33
2021-12-02 02:35:00,,0828.5,5.00,0.00,30.1,29.2,00.0,39.1,31.8,09.0,0000.0,0003.73,0000.53,0000.32
2021-12-02 02:36:00,,0828.4,5.00,0.00,30.1,29.3,00.0,39.1,31.8,08.8,0000.0,0003.65,0000.51,0000.32
2021-12-02 02:37:00,,0828.4,4.99,0.00,30.1,29.3,00.0,39.1,31.9,08.9,0000.0,0003.59,0000.53,0000.32
2021-12-02 02:38:00,,0828.3,5.01,0.00,30.1,29.2,00.0,39.1,31.8,09.0,0000.0,0003.55,0000.52,0000.33
2021-12-02 02:39:00,,0828.3,5.00,0.00,30.1,29.3,00.0,39.1,31.8,08.9,0000.0,0003.58,0000.52,0000.34
2021-12-02 02:40:00,,0828.2,5.00,0.00,30.1,29.3,00.0,39.1,31.8,08.8,0000.0,0003.58,0000.52,0000.34
2021-12-02 02:41:00,,0828.3,5.00,0.00,30.1,29.3,00.0,39.1,31.8,08.2,0000.0,0002.93,0000.53,0000.34
2021-12-02 02:42:00,,0828.3,4.99,0.00,30.1,29.3,00.0,39.1,31.8,08.6,0000.0,0001.74,0000.55,0000.34
2021-12-02 02:43:00,,0828.2,5.00,0.00,30.1,29.3,00.0,39.1,31.8,08.7,0000.0,0000.93,0000.52,0000.33
2021-12-02 02:44:00,,0828.2,5.01,0.00,30.1,29.3,00.0,39.1,31.8,08.5,0000.0,0000.95,0000.50,0000.32
2021-12-02 02:45:00,,0828.2,4.99,0.00,30.2,29.3,00.0,39.1,31.9,08.5,0000.0,0000.90,0000.48,0000.32
2021-12-02 02:46:00,,0828.2,5.01,0.00,30.2,29.3,00.0,39.1,31.9,08.4,0000.0,0000.88,0000.47,0000.31
2021-12-02 02:47:00,,0828.4,4.99,0.00,30.2,29.3,00.0,39.1,32.0,08.5,0000.0,0000.87,0000.47,0000.31
2021-12-02 02:48:00,,0828.3,5.00,0.00,30.2,29.3,00.0,39.1,31.9,08.4,0000.0,0000.86,0000.46,0000.30
2021-12-02 02:49:00,,0828.2,5.02,0.00,30.2,29.3,00.0,39.2,31.9,08.1,0000.0,0000.84,0000.45,0000.30
2021-12-02 02:50:00,,0828.2,4.98,0.00,30.2,29.3,00.0,39.2,31.9,08.1,0000.0,0000.82,0000.44,0000.29
2021-12-02 02:51:00,,0828.2,5.01,0.00,30.2,29.3,00.0,39.2,31.9,08.3,0000.0,0000.80,0000.44,0000.28
2021-12-02 02:52:00,,0828.3,4.98,0.00,30.2,29.3,00.0,39.2,31.9,08.2,0000.0,0000.90,0000.43,0000.29
2021-12-02 02:53:00,,0828.3,5.01,0.00,30.2,29.4,00.0,39.2,31.9,08.2,0000.0,0000.88,0000.42,0000.28
2021-12-02 02:54:00,,0828.4,5.00,0.00,30.2,29.4,00.0,39.2,32.0,08.1,0000.0,0000.90,0000.42,0000.28
2021-12-02 02:55:00,,0828.3,4.99,0.00,30.2,29.4,00.0,39.2,32.0,07.9,0000.0,0000.86,0000.42,0000.28
2021-12-02 02:56:00,,0828.3,5.00,0.00,30.2,29.4,00.0,39.2,32.0,08.0,0000.0,0000.78,0000.40,0000.27
2021-12-02 02:57:00,,0828.3,5.01,0.00,30.2,29.4,00.0,39.2,32.0,07.9,0000.0,0000.85,0000.40,0000.27
2021-12-02 02:58:00,,0828.4,5.00,0.00,30.2,29.4,00.0,39.2,32.0,07.9,0000.0,0000.86,0000.40,0000.27
2021-12-02 02:59:00,,0828.4,5.01,0.00,30.3,29.4,00.0,39.2,32.0,07.9,0000.0,0000.85,0000.39,0000.26
